Time,TemperatureF,DewpointF,PressureIn,WindDirection,WindDirectionDegrees,WindSpeedMPH,WindSpeedGustMPH,Humidity,HourlyPrecipIn,Conditions,Clouds,dailyrainin,SoftwareType,DateUTC
2013-05-23 00:08:00,68.4,62.0,29.77,WSW,243,3.0,7.0,80,0.00,,,0.00,weatherlink.com 1.10,2013-05-23 04:08:00,
2013-05-23 01:23:00,66.9,62.0,29.83,South,191,5.0,13.0,85,0.05,,,0.05,weatherlink.com 1.10,2013-05-23 05:23:00,
2013-05-23 01:38:00,65.8,62.0,29.83,South,170,3.0,12.0,88,0.19,,,0.19,weatherlink.com 1.10,2013-05-23 05:38:00,
2013-05-23 01:53:00,65.4,62.0,29.82,WSW,246,8.0,11.0,89,0.24,,,0.24,weatherlink.com 1.10,2013-05-23 05:53:00,
2013-05-23 02:08:00,65.0,61.0,29.80,NE,51,4.0,6.0,88,0.27,,,0.28,weatherlink.com 1.10,2013-05-23 06:08:00,
2013-05-23 02:23:00,64.9,62.0,29.80,SW,228,0.0,8.0,89,0.27,,,0.34,weatherlink.com 1.10,2013-05-23 06:23:00,
2013-05-23 02:38:00,64.9,62.0,29.79,SW,224,2.0,5.0,90,0.16,,,0.36,weatherlink.com 1.10,2013-05-23 06:38:00,
2013-05-23 02:53:00,64.9,62.0,29.79,South,191,0.0,4.0,91,0.11,,,0.36,weatherlink.com 1.10,2013-05-23 06:53:00,
2013-05-23 03:08:00,65.0,62.0,29.78,ESE,103,1.0,5.0,91,0.08,,,0.37,weatherlink.com 1.10,2013-05-23 07:08:00,
2013-05-23 03:23:00,64.9,62.0,29.77,East,84,6.0,11.0,90,0.03,,,0.37,weatherlink.com 1.10,2013-05-23 07:23:00,
2013-05-23 03:38:00,64.8,62.0,29.77,West,262,1.0,7.0,90,0.01,,,0.37,weatherlink.com 1.10,2013-05-23 07:38:00,
2013-05-23 03:53:00,64.6,62.0,29.78,WSW,257,2.0,5.0,91,0.01,,,0.37,weatherlink.com 1.10,2013-05-23 07:53:00,
2013-05-23 04:08:00,64.4,62.0,29.77,West,264,1.0,3.0,91,0.00,,,0.37,weatherlink.com 1.10,2013-05-23 08:08:00,
2013-05-23 04:23:00,64.3,62.0,29.77,NW,313,0.0,3.0,92,0.00,,,0.37,weatherlink.com 1.10,2013-05-23 08:23:00,
2013-05-23 04:38:00,64.3,62.0,29.78,West,264,0.0,2.0,92,0.00,,,0.37,weatherlink.com 1.10,2013-05-23 08:38:00,
2013-05-23 04:53:00,64.1,62.0,29.78,WNW,302,0.0,3.0,92,0.00,,,0.37,weatherlink.com 1.10,2013-05-23 08:53:00,
2013-05-23 05:08:00,64.0,62.0,29.78,WNW,298,3.0,3.0,92,0.00,,,0.37,weatherlink.com 1.10,2013-05-23 09:08:00,
2013-05-23 05:23:00,64.0,62.0,29.79,WSW,255,1.0,3.0,92,0.00,,,0.37,weatherlink.com 1.10,2013-05-23 09:23:00,
2013-05-23 05:38:00,64.0,62.0,29.79,WSW,245,0.0,2.0,92,0.00,,,0.37,weatherlink.com 1.10,2013-05-23 09:38:00,
2013-05-23 05:53:00,64.1,62.0,29.79,East,99,2.0,3.0,92,0.00,,,0.37,weatherlink.com 1.10,2013-05-23 09:53:00,
2013-05-23 06:08:00,64.1,62.0,29.80,East,88,1.0,2.0,92,0.00,,,0.37,weatherlink.com 1.10,2013-05-23 10:08:00,
2013-05-23 06:23:00,64.1,62.0,29.80,West,265,0.0,2.0,92,0.00,,,0.37,weatherlink.com 1.10,2013-05-23 10:23:00,
2013-05-23 06:38:00,64.2,62.0,29.80,SE,145,2.0,2.0,92,0.00,,,0.37,weatherlink.com 1.10,2013-05-23 10:38:00,
2013-05-23 06:53:00,64.4,62.0,29.80,SSW,202,1.0,5.0,92,0.00,,,0.37,weatherlink.com 1.10,2013-05-23 10:53:00,
2013-05-23 07:08:00,64.5,62.0,29.80,SW,232,3.0,4.0,92,0.00,,,0.37,weatherlink.com 1.10,2013-05-23 11:08:00,
2013-05-23 07:23:00,64.7,62.0,29.81,SSW,193,3.0,4.0,92,0.00,,,0.37,weatherlink.com 1.10,2013-05-23 11:23:00,
2013-05-23 07:38:00,64.8,62.0,29.81,SSE,167,2.0,7.0,91,0.00,,,0.37,weatherlink.com 1.10,2013-05-23 11:38:00,
2013-05-23 07:53:00,64.9,62.0,29.81,South,176,0.0,6.0,91,0.00,,,0.37,weatherlink.com 1.10,2013-05-23 11:53:00,
2013-05-23 08:08:00,65.0,62.0,29.81,SSW,207,6.0,8.0,91,0.00,,,0.37,weatherlink.com 1.10,2013-05-23 12:08:00,
2013-05-23 08:23:00,65.3,63.0,29.81,SSW,205,3.0,5.0,91,0.00,,,0.37,weatherlink.com 1.10,2013-05-23 12:23:00,
2013-05-23 08:38:00,66.1,63.0,29.81,WSW,239,6.0,7.0,90,0.00,,,0.37,weatherlink.com 1.10,2013-05-23 12:38:00,
2013-05-23 08:53:00,67.1,63.0,29.81,SW,219,3.0,8.0,87,0.00,,,0.37,weatherlink.com 1.10,2013-05-23 12:53:00,
2013-05-23 09:08:00,67.9,63.0,29.81,West,263,0.0,9.0,85,0.00,,,0.37,weatherlink.com 1.10,2013-05-23 13:08:00,
2013-05-23 09:23:00,68.5,64.0,29.81,WSW,242,3.0,5.0,84,0.00,,,0.37,weatherlink.com 1.10,2013-05-23 13:23:00,
2013-05-23 09:38:00,68.8,63.0,29.81,SW,231,2.0,7.0,82,0.00,,,0.37,weatherlink.com 1.10,2013-05-23 13:38:00,
2013-05-23 09:53:00,69.0,63.0,29.81,WSW,250,3.0,6.0,81,0.00,,,0.37,weatherlink.com 1.10,2013-05-23 13:53:00,
2013-05-23 10:08:00,69.0,63.0,29.81,WSW,250,4.0,11.0,80,0.00,,,0.37,weatherlink.com 1.10,2013-05-23 14:08:00,
2013-05-23 10:23:00,69.7,63.0,29.81,SE,145,3.0,10.0,78,0.00,,,0.37,weatherlink.com 1.10,2013-05-23 14:23:00,
2013-05-23 10:39:00,70.3,62.0,29.80,South,172,5.0,10.0,76,0.00,,,0.37,weatherlink.com 1.10,2013-05-23 14:39:00,
2013-05-23 10:54:00,71.0,62.0,29.81,WSW,255,2.0,11.0,73,0.00,,,0.37,weatherlink.com 1.10,2013-05-23 14:54:00,
2013-05-23 11:09:00,71.4,62.0,29.80,West,268,1.0,12.0,72,0.00,,,0.37,weatherlink.com 1.10,2013-05-23 15:09:00,
2013-05-23 11:24:00,71.7,62.0,29.80,West,278,5.0,8.0,71,0.00,,,0.37,weatherlink.com 1.10,2013-05-23 15:24:00,
2013-05-23 11:39:00,71.8,61.0,29.80,WNW,285,6.0,10.0,69,0.00,,,0.37,weatherlink.com 1.10,2013-05-23 15:39:00,
2013-05-23 11:54:00,72.9,60.0,29.80,WNW,285,4.0,15.0,65,0.00,,,0.37,weatherlink.com 1.10,2013-05-23 15:54:00,
2013-05-23 12:24:00,74.8,59.0,29.79,West,280,6.0,15.0,59,0.00,,,0.37,weatherlink.com 1.10,2013-05-23 16:24:00,
2013-05-23 12:39:00,74.5,59.0,29.78,WNW,295,3.0,10.0,59,0.00,,,0.37,weatherlink.com 1.10,2013-05-23 16:39:00,
2013-05-23 12:54:00,74.2,59.0,29.78,WSW,238,3.0,8.0,59,0.00,,,0.37,weatherlink.com 1.10,2013-05-23 16:54:00,
2013-05-23 13:09:00,72.9,61.0,29.78,WNW,285,8.0,14.0,66,0.00,,,0.37,weatherlink.com 1.10,2013-05-23 17:09:00,
2013-05-23 13:24:00,72.8,61.0,29.77,WNW,283,5.0,9.0,67,0.00,,,0.37,weatherlink.com 1.10,2013-05-23 17:24:00,
2013-05-23 13:39:00,73.0,61.0,29.76,WNW,285,5.0,8.0,66,0.00,,,0.37,weatherlink.com 1.10,2013-05-23 17:39:00,
2013-05-23 13:54:00,72.2,61.0,29.75,West,266,3.0,6.0,67,0.02,,,0.39,weatherlink.com 1.10,2013-05-23 17:54:00,
2013-05-23 14:09:00,70.1,62.0,29.78,West,281,11.0,12.0,76,0.02,,,0.39,weatherlink.com 1.10,2013-05-23 18:09:00,
2013-05-23 14:24:00,63.5,59.0,29.79,West,278,7.0,19.0,85,0.21,,,0.58,weatherlink.com 1.10,2013-05-23 18:24:00,
2013-05-23 14:39:00,62.7,59.0,29.80,SSW,207,6.0,7.0,88,0.22,,,0.59,weatherlink.com 1.10,2013-05-23 18:39:00,
2013-05-23 14:54:00,62.6,59.0,29.79,West,263,4.0,8.0,88,0.22,,,0.61,weatherlink.com 1.10,2013-05-23 18:54:00,
2013-05-23 15:09:00,62.4,59.0,29.78,WNW,284,1.0,6.0,88,0.26,,,0.65,weatherlink.com 1.10,2013-05-23 19:09:00,
2013-05-23 15:24:00,62.4,59.0,29.78,West,269,0.0,3.0,89,0.09,,,0.68,weatherlink.com 1.10,2013-05-23 19:24:00,
2013-05-23 15:39:00,62.7,60.0,29.77,East,98,1.0,2.0,90,0.10,,,0.69,weatherlink.com 1.10,2013-05-23 19:39:00,
2013-05-23 15:54:00,63.6,61.0,29.77,East,99,0.0,1.0,91,0.08,,,0.69,weatherlink.com 1.10,2013-05-23 19:54:00,
2013-05-23 16:09:00,64.5,62.0,29.76,ENE,72,1.0,4.0,90,0.03,,,0.69,weatherlink.com 1.10,2013-05-23 20:09:00,
2013-05-23 16:24:00,65.9,62.0,29.76,WSW,257,0.0,5.0,86,0.01,,,0.69,weatherlink.com 1.10,2013-05-23 20:24:00,
2013-05-23 16:39:00,66.6,62.0,29.76,ESE,119,1.0,5.0,86,0.00,,,0.69,weatherlink.com 1.10,2013-05-23 20:39:00,
2013-05-23 16:54:00,66.8,63.0,29.75,SSE,160,5.0,6.0,86,0.00,,,0.69,weatherlink.com 1.10,2013-05-23 20:54:00,
2013-05-23 17:09:00,67.0,62.0,29.75,SE,124,6.0,6.0,85,0.00,,,0.69,weatherlink.com 1.10,2013-05-23 21:09:00,
2013-05-23 17:24:00,66.9,62.0,29.76,North,358,1.0,6.0,85,0.00,,,0.69,weatherlink.com 1.10,2013-05-23 21:24:00,
2013-05-23 17:39:00,67.1,62.0,29.75,South,170,2.0,7.0,84,0.00,,,0.69,weatherlink.com 1.10,2013-05-23 21:39:00,
2013-05-23 17:54:00,67.5,63.0,29.75,SE,134,3.0,10.0,84,0.00,,,0.69,weatherlink.com 1.10,2013-05-23 21:54:00,
2013-05-23 18:09:00,67.1,63.0,29.75,East,98,3.0,8.0,85,0.00,,,0.69,weatherlink.com 1.10,2013-05-23 22:09:00,
2013-05-23 18:24:00,66.7,63.0,29.77,SSW,212,3.0,5.0,87,0.17,,,0.86,weatherlink.com 1.10,2013-05-23 22:24:00,
2013-05-23 18:39:00,66.0,63.0,29.77,WSW,247,4.0,7.0,89,0.20,,,0.89,weatherlink.com 1.10,2013-05-23 22:39:00,
2013-05-23 18:54:00,65.0,61.0,29.77,SW,232,3.0,6.0,87,0.22,,,0.91,weatherlink.com 1.10,2013-05-23 22:54:00,
2013-05-23 19:09:00,64.0,60.0,29.77,SW,225,2.0,3.0,87,0.26,,,0.95,weatherlink.com 1.10,2013-05-23 23:09:00,
2013-05-23 19:24:00,63.3,60.0,29.77,South,169,1.0,2.0,89,0.11,,,0.98,weatherlink.com 1.10,2013-05-23 23:24:00,
2013-05-23 19:39:00,63.0,60.0,29.77,SW,221,2.0,2.0,90,0.09,,,0.98,weatherlink.com 1.10,2013-05-23 23:39:00,
2013-05-23 19:54:00,62.5,60.0,29.77,SSW,212,0.0,2.0,92,0.06,,,0.98,weatherlink.com 1.10,2013-05-23 23:54:00,
2013-05-23 20:09:00,62.9,61.0,29.79,WNW,284,3.0,4.0,93,0.05,,,1.00,weatherlink.com 1.10,2013-05-24 00:09:00,
2013-05-23 20:24:00,62.9,61.0,29.79,WSW,252,2.0,5.0,92,0.15,,,1.13,weatherlink.com 1.10,2013-05-24 00:24:00,
2013-05-23 20:39:00,63.0,61.0,29.80,West,281,2.0,5.0,93,0.20,,,1.18,weatherlink.com 1.10,2013-05-24 00:39:00,
2013-05-23 20:54:00,62.9,61.0,29.79,SW,236,2.0,4.0,93,0.22,,,1.20,weatherlink.com 1.10,2013-05-24 00:54:00,
2013-05-23 21:09:00,62.8,61.0,29.80,WSW,252,3.0,5.0,93,0.20,,,1.20,weatherlink.com 1.10,2013-05-24 01:09:00,
2013-05-23 21:24:00,62.7,60.0,29.80,SW,214,3.0,5.0,92,0.06,,,1.20,weatherlink.com 1.10,2013-05-24 01:24:00,
2013-05-23 21:39:00,63.0,61.0,29.80,WNW,291,4.0,6.0,92,0.02,,,1.20,weatherlink.com 1.10,2013-05-24 01:39:00,
2013-05-23 21:54:00,62.5,60.0,29.81,WNW,302,1.0,6.0,90,0.00,,,1.20,weatherlink.com 1.10,2013-05-24 01:54:00,
2013-05-23 22:09:00,61.8,59.0,29.82,WNW,295,5.0,7.0,89,0.00,,,1.20,weatherlink.com 1.10,2013-05-24 02:09:00,
2013-05-23 22:24:00,61.0,58.0,29.83,WNW,282,4.0,11.0,88,0.00,,,1.20,weatherlink.com 1.10,2013-05-24 02:24:00,
2013-05-23 22:40:00,59.0,56.0,29.85,West,270,3.0,14.0,90,0.00,,,1.20,weatherlink.com 1.10,2013-05-24 02:40:00,
2013-05-23 22:55:00,55.8,53.0,29.86,West,261,9.0,18.0,91,0.00,,,1.20,weatherlink.com 1.10,2013-05-24 02:55:00,
2013-05-23 23:10:00,53.7,52.0,29.88,NW,306,8.0,16.0,92,0.00,,,1.20,weatherlink.com 1.10,2013-05-24 03:10:00,
2013-05-23 23:25:00,52.8,50.0,29.88,WNW,295,8.0,19.0,91,0.00,,,1.20,weatherlink.com 1.10,2013-05-24 03:25:00,
2013-05-23 23:40:00,51.7,49.0,29.89,West,277,6.0,14.0,90,0.01,,,0.00,weatherlink.com 1.10,2013-05-24 03:40:00,
2013-05-23 23:55:00,51.3,49.0,29.89,WNW,303,5.0,13.0,90,0.01,,,0.00,weatherlink.com 1.10,2013-05-24 03:55:00,